Regional Weather Roundup
Issued by NWS Wakefield, VA

Home | Current Version | Previous Version | Graphics & Text | Print | Product List | Glossary On
Versions: 1 2 3 4 5 6 7 8 9 10 11 12 13 14 15 16 17 18 19 20 21 22 23 24 25 26 27 28 29 30 31 32 33 34 35 36 37 38 39 40 41 42 43 44 45 46 47 48 49 50
000
ASUS41 KAKQ 201115
RWRAKQ

REGIONAL WEATHER ROUNDUP
NATIONAL WEATHER SERVICE WAKEFIELD VA
600 AM EST TUE FEB 20 2018

Note: "fair" indicates few or no clouds below 12,000 feet with no
significant weather and/or obstructions to visibility. * = Denotes
station may not report precipitation (e.g., rain,snow,etc.),
thunder or fog.

VAZ042-051-052>054-056-201200-
NORTHERN VIRGINIA

CITY           SKY/WX    TMP DP  RH WIND       PRES   REMARKS
WASH NATIONAL  CLOUDY    54  53  97 S10       30.35R
DULLES         CLOUDY    51  51 100 S13       30.33R
FORT BELVOIR   CLOUDY    53  51  94 S3        30.36R
QUANTICO       CLOUDY    51  51 100 SW8       30.38R
FREDERICKSBRG* CLOUDY    55  55 100 S12G17    30.37R
STAFFORD*      CLOUDY    55  55 100 SW8       30.41R
WARRENTON      CLOUDY    52  49  87 SW9       30.36R
CULPEPER*      CLOUDY    52  49  92 S6        30.37R
MANASSAS*      CLOUDY    52  50  93 SW5       30.36R
LEESBURG*      CLOUDY    46  46 100 SW3       30.34R FOG
WINCHESTER     FAIR      50  48  93 SW8       30.32R
FRONT ROYAL*   FAIR      55  52  88 SW9       30.31R
LURAY*         FAIR      54  52  94 SW6       30.34R
$$

VAZ048-049-060>072-079>083-201200-
CENTRAL AND SOUTH CENTRAL VIRGINIA

CITY           SKY/WX    TMP DP  RH WIND       PRES   REMARKS
RICHMOND       DRZL/FOG  53  53 100 S6        30.41R VSB 1
CHESTERFIELD*  LGT RAIN  53  53 100 CALM      30.41R FOG
PETERSBURG*    NOT AVBL
HANOVER        CLOUDY    54  54 100 SW7       30.41R FOG
TAPPAHANNOCK*  CLOUDY    56  56 100 S10       30.41R FOG
QUINTON*       CLOUDY    53  53 100 SW6       30.41R FOG
CHARLOTTSVILLE CLOUDY    51  50  96 VRB5      30.37R FOG
GORDONSVILLE*  CLOUDY    51  51 100 SW9       30.37R
ORANGE*        CLOUDY    50  50 100 SW6       30.37R
LOUISA*        CLOUDY    52  52  98 SW7       30.43R
BUMPASS*       CLOUDY    52  51  96 SW7       30.38R
FARMVILLE*     CLOUDY   N/A N/A N/A S5        30.39R HAZE
CREWE*         CLOUDY    53  53 100 SW3       30.40S
FORT PICKETT*  CLOUDY    51  51 100 SW5       30.41R
CHASE CITY*    CLOUDY    51  51 100 CALM      30.42R VSB 1
CLARKSVILLE*   CLOUDY    50  50 100 CALM      30.42R VSB 1/2
SOUTH HILL*    CLOUDY    51  51 100 CALM      30.48R VSB 3/4
LAWRENCEVILLE* CLOUDY    51  51  97 CALM      30.42R VSB 3/4
EMPORIA*       FOG       50  50 100 CALM      30.44R VSB 1
$$

VAZ088>098-201200-
SOUTHEAST VIRGINIA

CITY           SKY/WX    TMP DP  RH WIND       PRES   REMARKS
NORFOLK        FOG       59  58  96 S6        30.42R VSB 1/2
VIRGINIA BEACH CLOUDY    63  62  97 S8        30.41R
NORFOLK NAVAL  FOG       54  53  97 CALM      30.43S VSB 1/4
WEST POINT*    CLOUDY    54  53  96 SW3       30.43R
SALUDA*        CLOUDY    56  56 100 S6        30.40R
NEWPORT NEWS   FOG       54  53  97 CALM      30.42R VSB 1/2
LANGLEY AFB    FOG       54  54 100 SW3       30.42R VSB 1/4
FORT EUSTIS    FOG       54  53  98 CALM      30.40R VSB 1/4
WILLIAMSBURG*  CLOUDY    55  54  94 CALM      30.43R VSB 1/2
HR EXEC AP*    FOG       56  55  97 W3        30.43R VSB 1/2
FRANKLIN*      FOG       52  52  99 S3        30.43S VSB 3/4
US460-WAKEFLD  FOG       53  53 100 CALM      30.42R VSB 1/4
$$

VAZ020-022-025-037-045-201200-
WEST CENTRAL AND SOUTHWEST VIRGINIA

CITY           SKY/WX    TMP DP  RH WIND       PRES   REMARKS
STAUNTON*      FAIR      46  46  98 CALM      30.38R
WAYNESBORO*    FAIR      45  45  99 CALM      30.36R
HOT SPRINGS VA CLOUDY    53  52  96 SW16G23   30.39R
LYNCHBURG      CLOUDY    49  49 100 S5        30.39S FOG
DANVILLE       CLOUDY    51  51 100 CALM      30.42R FOG
SOUTH BOSTON*  CLOUDY    51  50  95 CALM      30.42R VSB 1/2
MARTINSVILLE   DRIZZLE   51  50  97 CALM      30.43R
ROANOKE        FOG       48  48 100 CALM      30.41R VSB 1/4
BLACKSBURG     FOG       48  48 100 CALM      30.41S VSB 1
DUBLIN*        FAIR      46  46 100 NW3       30.39R FOG
MARION*        FAIR      49  33  55 CALM      30.40R
HILLSVILLE*    MOCLDY    56  54  94 S12G22    30.39R
RICHLANDS*     FAIR      59  49  70 S8G18     30.34S
WISE*          FAIR      57  52  82 S9        30.34R
ABINGDON*      FAIR      50  49  95 E3        30.35R
$$

MDZ021>025-VAZ099-100-201200-
SOUTHERN MARYLAND AND THE DELMARVA PENINSULA

CITY           SKY/WX    TMP DP  RH WIND       PRES   REMARKS
PATUXENT RIVER CLOUDY    56  56 100 SW12      30.38R
BAY BRIDGE APT CLOUDY    50  50 100 S6        30.35R FOG
LEONARDTOWN    CLOUDY    54  54 100 SW6       30.40R
DOVER          CLOUDY    57  56  96 SW15G24   30.34R
GEORGETOWN     CLOUDY    61  58  90 SW15G22   30.37R
EASTON         CLOUDY    55  54  94 SW14      30.39S FOG
CAMBRIDGE      CLOUDY    55  55 100 VRB5      30.39R FOG
SALISBURY      CLOUDY    58  58 100 SW12      30.38R
OCEAN CITY     FOG       51  51 100 S7        30.39S VSB 3/4
WALLOPS ISLAND FOG       57  57 100 SW6       30.41R VSB 1
ACCOMACK*      FOG       58  57  99 SW6       30.41R VSB 1/2
$$

NCZ012>017-030>032-201200-
NORTH CENTRAL AND EASTERN NORTH CAROLINA

CITY           SKY/WX    TMP DP  RH WIND       PRES   REMARKS
ROANOKE RAPIDS NOT AVBL
RALEIGH        FOG       52  52 100 CALM      30.42S VSB 1/8
ELIZABETH CITY CLOUDY    63  63 100 S7        30.43R
AHOSKIE*       DRZL/FOG  51  51 100 CALM      30.43S VSB<1/4
EDENTON*       MOCLDY    62  62 100 SE5       30.44R FOG
CURRITUCK*     CLOUDY    59  58  97 S3        30.44R
KILL DEVIL HLS NOT AVBL
MANTEO         FAIR      59  59  99 S9        30.45R
CAPE HATTERAS  CLOUDY    62  61  96 S6        30.46R
TARBORO*       NOT AVBL
GOLDSBORO      FOG       57  56  98 CALM      30.42R VSB 3/8
WASHINGTON     FOG       62  61  97 SE3       30.44R VSB 1/4
GREENVILLE     FOG       64  63  94 S6        30.43R VSB 1/2
NEW BERN       CLOUDY    65  65 100 SW5       30.45R
WILMINGTON     FOG       64  64 100 CALM      30.43S VSB 3/4
$$

VAZ048-201200-
ELSEWHERE

CITY           SKY/WX    TMP DP  RH WIND       PRES   REMARKS
HARRISBURG PA  FOG       42  40  92 CALM      30.31R VSB 1/4
BALTIMORE      CLOUDY    51  51 100 SW8       30.32S
ANNAPOLIS      CLOUDY    55  54  96 S5        30.34R
ANDREWS AFB    CLOUDY    53  53  99 S13       30.34R
PHILADELPHIA   FOG       50  50 100 SW9       30.34R VSB 1/2
HENDERSON NC   FOG       48  48  98 CALM      30.42R VSB 1/2
GREENSBORO     DRZL/FOG  52  52 100 W3        30.41R VSB 1/2
ROCKY MOUNT    FOG       53  53 100 CALM      30.44R VSB 1/4
$$

VAZ100-201200-
MARINE

STATION/POSITION TIME  TEMP    WIND        PRES    WAVE   SWELL
                       AIR SEA DIR/SP/G            HT/PER HT/PER
                 (UTC) (F)     (DEG/KT/KT) (MB)    (FT/S) (FT/S)
BRANDYWINE LGT   1042   55     230/ 18/ 19 1028.1R
CAPE MAY NJ      1048   54 41  220/ 11/ 14 1027.7R
LEWES DE         1048   60 40  240/ 11/ 15 1027.9R
15NM E FENWICK I 1050   46 42  190/ 12/ 14 1029.4R   3/11   3/11
OCEAN-CITY-INLET 1048   44 42  210/  9/ 11 1029.5R
WACHAPREAGUE VA  1048   51 48  210/  6/  7 1029.8R
THOMAS POINT MD  1100   45 38  200/  9/ 10   N/A
GOOSES REEF MD   1100   47 39  200/ 10/ 12 1028.8    1/ 2
COVE POINT MD    1048   54     240/ 12/ 16 1029.3R
SOLOMONS ISLAND  1042   52 41  230/  9/ 11 1028.5R
BISHOPS HEAD MD  1048   48 44  190/  8/ 10 1029.5R
POTOMAC MD       1100   49 42   70/  8/ 10 1028.6
CAMBRIDGE MD     1048   54 43              1029.5R
LEWISETTA VA     1048   55 45  240/  9/ 11 1029.1R
RAPPAHANNOCK LGT 1048          180/ 11/ 12 1030.4R
STINGRAY PT      1100   49 42  230/  8/  8 1031.1    0
YORK RVR RNG VA  1048   53     220/  7/  7 1030.3R
YORKTOWN VA      1048   54 45  230/  4/  7 1029.6R
DOMINION TERM VA 1048   52     280/  2/  2 1030.4R
KIPTOPEKE VA     1048      44   10/  1/  2   N/A
CAPE HENRY VA    1048   51      CALM  /  2   N/A
S CRANEY ISL VA  1048   54     230/  3/  5 1029.9R
CAPE HENRY BUOY  1100      43                N/A     3/ 6
1ST LANDING BUOY 1100   51 42  280/  6/  6 1030.1    1
CAPE CHARLES BUO 1051      43                N/A     3/ 6
64NM E OF VA BCH 1050   54 50  190/ 12/ 12 1031.1R   4/ 6   2/ 9
DUCK PIER NC     1048   63 44  180/ 11/ 12 1030.2R
44100 DUCK FRF   1045      44                N/A     3/ 6   2/11
44056 DUCK FRF   1100      45                N/A     3/ 6   2/11
OREGON INLET NC  1042   58 49  170/  9/ 11 1031.0R
HATTERAS NC      1048   64 56  170/  6/  8 1031.2R
DIAMOND SHLS NC  1100   72 72  170/ 16/ 19 1031.8
CAPE LOOKOUT NC  1100          170/  4/  5 1031.3R
$$



USA.gov is the U.S. government's official web portal to all federal, state and local government web resources and services.